• En España
  • Lista de países
  • Para 7 días
  • Temperatura del agua
  • Mapa Satelital
  • El tiempo en el mapa
  • Informadores
  • user-avatar
    Iniciar sesión

    Tiempo cada hora Kipungo

    Hoy, 18 Octubre, Jueves

    Tiempo Temperatura Precipitaciones Viento Presión Humedad
    00:00 +23°C° 0 mm 2 mps 652 mmHg 61%
    01:00 +20°C° 0 mm 2 mps 652 mmHg 73%
    02:00 +20°C° 0 mm 2 mps 652 mmHg 77%
    03:00 +20°C° 0 mm 1 mps 652 mmHg 82%
    04:00 +19°C° 0 mm 1 mps 652 mmHg 86%
    05:00 +20°C° 0 mm 1 mps 652 mmHg 81%
    06:00 +21°C° 0 mm 1 mps 653 mmHg 76%
    07:00 +22°C° 0 mm 1 mps 653 mmHg 70%
    08:00 +26°C° 0 mm 2 mps 654 mmHg 52%
    09:00 +30°C° 0 mm 2 mps 655 mmHg 34%
    10:00 +35°C° 0 mm 2 mps 655 mmHg 16%
    11:00 +36°C° 0 mm 2 mps 655 mmHg 12%
    12:00 +38°C° 0 mm 3 mps 654 mmHg 9%
    13:00 +39°C° 0 mm 3 mps 654 mmHg 6%
    14:00 +39°C° 0 mm 3 mps 653 mmHg 7%
    15:00 +38°C° 0 mm 3 mps 653 mmHg 7%
    16:00 +38°C° 0 mm 3 mps 652 mmHg 8%
    17:00 +35°C° 0 mm 3 mps 652 mmHg 12%
    18:00 +31°C° 0 mm 2 mps 652 mmHg 17%
    19:00 +28°C° 0 mm 2 mps 652 mmHg 21%
    20:00 +27°C° 0 mm 2 mps 652 mmHg 32%
    21:00 +25°C° 0 mm 2 mps 652 mmHg 42%
    22:00 +24°C° 0 mm 3 mps 652 mmHg 52%
    23:00 +22°C° 0 mm 3 mps 652 mmHg 57%

    Mañana, 19 Octubre, Viernes

    Tiempo Temperatura Precipitaciones Viento Presión Humedad
    00:00 +21°C° 0 mm 2 mps 651 mmHg 63%
    01:00 +20°C° 0 mm 2 mps 651 mmHg 68%
    02:00 +19°C° 0 mm 2 mps 651 mmHg 74%
    03:00 +19°C° 0 mm 2 mps 651 mmHg 79%
    04:00 +19°C° 0 mm 1 mps 651 mmHg 85%
    05:00 +20°C° 0 mm 1 mps 652 mmHg 81%
    06:00 +21°C° 0 mm 1 mps 652 mmHg 77%
    07:00 +21°C° 0 mm 2 mps 653 mmHg 73%
    08:00 +26°C° 0 mm 1 mps 654 mmHg 54%
    09:00 +31°C° 0 mm 1 mps 655 mmHg 36%
    10:00 +35°C° 0 mm 1 mps 656 mmHg 18%
    11:00 +37°C° 0 mm 1 mps 656 mmHg 15%
    12:00 +39°C° 0 mm 1 mps 655 mmHg 13%
    13:00 +40°C° 0 mm 1 mps 655 mmHg 10%
    14:00 +40°C° 0 mm 2 mps 654 mmHg 11%
    15:00 +39°C° 0 mm 2 mps 653 mmHg 11%
    16:00 +38°C° 0 mm 2 mps 653 mmHg 12%
    17:00 +36°C° 0 mm 3 mps 653 mmHg 17%
    18:00 +33°C° 0 mm 3 mps 653 mmHg 23%
    19:00 +30°C° 0 mm 4 mps 653 mmHg 28%
    20:00 +28°C° 0 mm 4 mps 653 mmHg 37%
    21:00 +27°C° 0 mm 3 mps 653 mmHg 47%
    22:00 +25°C° 0 mm 3 mps 654 mmHg 56%
    23:00 +24°C° 0 mm 2 mps 653 mmHg 60%

    Pasado mañana, 20 Octubre, Sábado

    Tiempo Temperatura Precipitaciones Viento Presión Humedad
    00:00 +23°C° 0 mm 2 mps 653 mmHg 64%
    01:00 +21°C° 0 mm 2 mps 653 mmHg 68%
    02:00 +21°C° 0 mm 2 mps 653 mmHg 70%
    03:00 +21°C° 0 mm 2 mps 653 mmHg 72%
    04:00 +20°C° 0 mm 2 mps 653 mmHg 75%
    05:00 +21°C° 0 mm 2 mps 653 mmHg 71%
    06:00 +23°C° 0 mm 2 mps 654 mmHg 67%
    07:00 +24°C° 0 mm 1 mps 654 mmHg 64%
    08:00 +28°C° 0 mm 1 mps 656 mmHg 49%
    09:00 +33°C° 0 mm 1 mps 657 mmHg 34%
    10:00 +36°C° 0 mm 0 mps 658 mmHg 19%
    11:00 +40°C° 0 mm 1 mps 657 mmHg 17%
    12:00 +41°C° 0 mm 1 mps 657 mmHg 16%
    13:00 +42°C° 0 mm 1 mps 656 mmHg 14%
    14:00 +40°C° 0 mm 1 mps 655 mmHg 15%
    15:00 +39°C° 0 mm 2 mps 654 mmHg 17%
    16:00 +37°C° 0 mm 2 mps 653 mmHg 18%
    17:00 +35°C° 0 mm 2 mps 653 mmHg 21%
    18:00 +32°C° 0 mm 2 mps 653 mmHg 25%
    19:00 +30°C° 0 mm 2 mps 654 mmHg 29%
    20:00 +29°C° 0.1 mm 2 mps 654 mmHg 35%
    21:00 +27°C° 0.1 mm 2 mps 654 mmHg 41%
    22:00 +26°C° 0.1 mm 1 mps 654 mmHg 47%
    23:00 +25°C° 0 mm 2 mps 654 mmHg 50%

    21 Octubre, Domingo

    Tiempo Temperatura Precipitaciones Viento Presión Humedad
    00:00 +25°C° 0 mm 2 mps 653 mmHg 53%
    01:00 +24°C° 0 mm 2 mps 653 mmHg 56%
    02:00 +23°C° 0 mm 2 mps 653 mmHg 58%
    03:00 +23°C° 0 mm 1 mps 653 mmHg 61%
    04:00 +22°C° 0 mm 1 mps 653 mmHg 63%
    05:00 +21°C° 0 mm 0 mps 653 mmHg 58%
    06:00 +23°C° 0 mm 0 mps 654 mmHg 54%
    07:00 +24°C° 0 mm 0 mps 655 mmHg 49%
    08:00 +28°C° 0 mm 0 mps 655 mmHg 38%
    09:00 +32°C° 0 mm 0 mps 656 mmHg 27%
    10:00 +39°C° 0 mm 1 mps 657 mmHg 17%
    11:00 +40°C° 0 mm 1 mps 656 mmHg 16%
    12:00 +40°C° 0 mm 2 mps 655 mmHg 15%
    13:00 +41°C° 0 mm 2 mps 654 mmHg 14%
    14:00 +40°C° 0 mm 2 mps 654 mmHg 15%
    15:00 +38°C° 0 mm 2 mps 653 mmHg 17%
    16:00 +37°C° 0 mm 2 mps 653 mmHg 18%
    17:00 +35°C° 0 mm 3 mps 653 mmHg 23%
    18:00 +33°C° 0 mm 3 mps 653 mmHg 27%
    19:00 +30°C° 0 mm 4 mps 653 mmHg 32%
    20:00 +28°C° 0 mm 3 mps 653 mmHg 35%
    21:00 +27°C° 0 mm 3 mps 654 mmHg 38%
    22:00 +26°C° 0 mm 3 mps 654 mmHg 41%
    23:00 +25°C° 0 mm 2 mps 654 mmHg 45%

    22 Octubre, Lunes

    Tiempo Temperatura Precipitaciones Viento Presión Humedad
    00:00 +25°C° 0 mm 2 mps 653 mmHg 49%
    01:00 +24°C° 0 mm 2 mps 653 mmHg 53%
    02:00 +24°C° 0.1 mm 2 mps 653 mmHg 52%
    03:00 +24°C° 0.1 mm 1 mps 653 mmHg 52%
    04:00 +23°C° 0.1 mm 1 mps 653 mmHg 51%
    05:00 +24°C° 0.2 mm 1 mps 653 mmHg 48%
    06:00 +25°C° 0.2 mm 1 mps 654 mmHg 45%
    07:00 +23°C° 0.2 mm 0 mps 654 mmHg 43%
    08:00 +28°C° 0.3 mm 1 mps 655 mmHg 36%
    09:00 +31°C° 0.3 mm 1 mps 655 mmHg 30%
    10:00 +33°C° 0.3 mm 1 mps 655 mmHg 23%
    11:00 +34°C° 0.1 mm 1 mps 655 mmHg 23%
    12:00 +35°C° 0.1 mm 1 mps 654 mmHg 22%
    13:00 +37°C° 0.1 mm 2 mps 654 mmHg 21%
    14:00 +37°C° 0 mm 2 mps 653 mmHg 21%
    15:00 +36°C° 0 mm 2 mps 653 mmHg 21%
    16:00 +36°C° 0 mm 2 mps 652 mmHg 21%
    17:00 +34°C° 0.1 mm 2 mps 652 mmHg 25%
    18:00 +31°C° 0.1 mm 2 mps 652 mmHg 29%
    19:00 +29°C° 0.1 mm 1 mps 652 mmHg 33%
    20:00 +28°C° 0.3 mm 2 mps 653 mmHg 37%
    21:00 +27°C° 0.3 mm 2 mps 653 mmHg 40%
    22:00 +26°C° 0.3 mm 3 mps 654 mmHg 44%
    23:00 +25°C° 0.1 mm 3 mps 653 mmHg 50%

    23 Octubre, Martes

    Tiempo Temperatura Precipitaciones Viento Presión Humedad
    00:00 +24°C° 0.1 mm 3 mps 653 mmHg 57%
    01:00 +23°C° 0.1 mm 2 mps 653 mmHg 63%
    02:00 +23°C° 0.1 mm 2 mps 653 mmHg 65%
    03:00 +23°C° 0.1 mm 2 mps 653 mmHg 68%
    04:00 +22°C° 0.1 mm 1 mps 652 mmHg 70%
    05:00 +23°C° 0.1 mm 1 mps 653 mmHg 67%
    06:00 +24°C° 0.1 mm 1 mps 654 mmHg 64%
    07:00 +25°C° 0.1 mm 1 mps 654 mmHg 60%
    08:00 +26°C° 0 mm 2 mps 655 mmHg 52%
    09:00 +28°C° 0 mm 2 mps 655 mmHg 44%
    10:00 +30°C° 0 mm 2 mps 655 mmHg 36%
    11:00 +34°C° 0 mm 2 mps 655 mmHg 30%
    12:00 +36°C° 0 mm 1 mps 655 mmHg 25%
    13:00 +39°C° 0 mm 1 mps 655 mmHg 19%
    14:00 +36°C° 0 mm 1 mps 654 mmHg 21%
    15:00 +35°C° 0 mm 1 mps 653 mmHg 23%
    16:00 +33°C° 0 mm 1 mps 653 mmHg 25%
    17:00 +31°C° 0.1 mm 2 mps 653 mmHg 31%
    18:00 +29°C° 0.1 mm 3 mps 653 mmHg 37%
    19:00 +28°C° 0.1 mm 3 mps 654 mmHg 43%
    20:00 +27°C° 0.1 mm 3 mps 654 mmHg 48%
    21:00 +26°C° 0.1 mm 3 mps 654 mmHg 52%
    22:00 +24°C° 0.1 mm 2 mps 654 mmHg 57%
    23:00 +24°C° 0 mm 2 mps 653 mmHg 60%
    Mostrar más